Regional Weather Roundup
Issued by NWS

Home | Current Version | Previous Version | Text Only | Print | Product List | Glossary On
Versions: 1 2 3 4 5 6 7 8 9 10 11 12 13 14 15 16 17 18 19 20 21 22 23 24 25 26 27 28 29 30 31 32 33 34 35 36 37 38 39 40 41 42 43 44 45 46 47 48 49 50
000
ASUS45 KABQ 041810
RWRNM
NEW MEXICO REGIONAL WEATHER ROUNDUP
NATIONAL WEATHER SERVICE ALBUQUERQUE NM
1200 PM MDT TUE AUG 04 2015

NOTE: "FAIR" MEANS FEW OR NO CLOUDS BELOW 12,000 FEET AGL WITH NO
       SIGNIFICANT WEATHER OR OBSTRUCTIONS TO VISION.

      THIS PRODUCT IS RELEASED AS TWO VERSIONS.  ONE VERSION NEAR
      THE TOP OF THE HOUR CONTAINING PRELIMINARY DATA FROM ALBUQUERQUE
      AND OTHER STATIONS.  A FINAL VERSION WITH ADDITIONAL DATA IS
      ISSUED ABOUT 10 MINUTES AFTER THE HOUR.

NMZ501-503-504-510>518-041900-
NORTHWEST PLATEAU/NORTHCENTRAL MOUNTAINS

CITY           SKY/WX    TMP DP  RH WIND       PRES   REMARKS
FARMINGTON     SUNNY     83  48  29 VRB7      30.20S
6HR MIN TEMP:  62; 6HR MAX TEMP:  84;

LOS ALAMOS     SUNNY     75  49  40 NE7       30.32F
SANTA FE       SUNNY     81  46  29 SW5       30.25F
6HR MIN TEMP:  56; 6HR MAX TEMP:  82;

TAOS           MOSUNNY  N/A N/A N/A CALM      30.30F
ANGEL FIRE     FAIR      69  43  38 SW14      30.39S

$$
NMZ402-403-502-505>509-041900-
WESTCENTRAL MOUNTAINS/SOUTHWEST MOUNTAINS

CITY           SKY/WX    TMP DP  RH WIND       PRES   REMARKS
GALLUP         SUNNY     82  45  27 VRB3      30.28F
6HR MIN TEMP:  52; 6HR MAX TEMP:  82;

GRANTS         PTSUNNY   77  51  40 E5        30.30S
SILVER CITY      N/A     82  54  36 S5        30.23S

$$
NMZ407-409-411-412-041900-
SOUTHERN DESERTS

CITY           SKY/WX    TMP DP  RH WIND       PRES   REMARKS
LORDSBURG      FAIR      86  54  32 CALM      30.12F
DEMING         SUNNY     85  59  41 CALM      30.13F
6HR MIN TEMP:  66; 6HR MAX TEMP:  85;

LAS CRUCES     SUNNY     82  59  44 CALM      30.15F
HOLLOMAN AFB   MOSUNNY   87  56  34 NE6       30.09F
ALAMOGORDO     SUNNY     86  55  35 SW6       30.12F
T OR C         SUNNY     87  53  31 CALM      30.15S
6HR MIN TEMP:  66; 6HR MAX TEMP:  88;


$$
NMZ519>523-041900-
CENTRAL VALLEYS/CENTRAL HIGHLANDS

CITY           SKY/WX    TMP DP  RH WIND       PRES   REMARKS
ALBUQUERQUE    MOSUNNY   84  47  27 VRB3      30.20F
6HR MIN TEMP:  64; 6HR MAX TEMP:  84;

DOUBLE EAGLE   MOSUNNY   82  52  34 VRB6      30.24F
MORIARTY ARPT    N/A     82  48  30 N3        30.26S
6HR MIN TEMP:  52; 6HR MAX TEMP:  82;

CLINES CORNERS SUNNY     78  49  35 W12       30.30S
6HR MIN TEMP:  57; 6HR MAX TEMP:  78;

BELEN          FAIR      85  47  27 SW3       30.19F
6HR MIN TEMP:  60; 6HR MAX TEMP:  85;

SOCORRO        FAIR      86  51  30 NE5       30.17S
6HR MIN TEMP:  63; 6HR MAX TEMP:  86;


$$
NMZ524>526-539-540-041900-
SOUTHCENTRAL MOUNTAINS

CITY           SKY/WX    TMP DP  RH WIND       PRES   REMARKS
RUIDOSO          N/A    N/A N/A N/A MISG        N/A

$$
NMZ527>531-041900-
NORTHEAST HIGHLANDS/NORTHEAST PLAINS

CITY           SKY/WX    TMP DP  RH WIND       PRES   REMARKS
RATON          SUNNY     80  54  40 CALM      30.18F
6HR MIN TEMP:  53; 6HR MAX TEMP:  80;

CLAYTON        NOT AVBL

$$
NMZ532>537-041900-
EASTCENTRAL PLAINS

CITY           SKY/WX    TMP DP  RH WIND       PRES   REMARKS
TUCUMCARI      SUNNY     83  64  52 S5        30.05S
6HR MIN TEMP:  64; 6HR MAX TEMP:  83;

CANNON AFB     SUNNY     81  64  56 SW7       30.07F HAZE
6HR MIN TEMP:  61; 6HR MAX TEMP:  81;

CLOVIS AIRPORT SUNNY     82  63  51 W3        30.08F

$$
NMZ028-029-538-041900-
SOUTHEAST PLAINS

CITY           SKY/WX    TMP DP  RH WIND       PRES   REMARKS
ROSWELL        SUNNY     89  61  38 CALM      30.04F
6HR MIN TEMP:  64; 6HR MAX TEMP:  90;

ARTESIA        SUNNY     86  64  48 N8        30.05F
CARLSBAD       SUNNY     94  57  28 N7        30.01F
6HR MIN TEMP:  67; 6HR MAX TEMP:  95;

HOBBS          SUNNY     84  66  54 S7        30.06S


$$


USA.gov is the U.S. government's official web portal to all federal, state and local government web resources and services.